Current weather by "City, St" or "zip code"  
 

Current Conditions: HOUSTON/SOUTHWST

Cloudy


81.1 F

Last Updated on May 26 2024, 01:55 AM CDT
Humidity: 94%
Wind Speed: S 5.8 mph
Barometer 29.76 in
Dewpoint: 79.3 F
Visibility: 10.00 mi
Precip: --
Heat Index: 90.0 F
Wind Chill: NA
Current conditions at:

HOUSTON/SOUTHWST (KAXH)

Lat: 29.51 Lon: 95.48

active severe weather and emergency alerts image image weather storm and storm spotter reports image weather observation monitoring service image
Active
Alerts
Storm Reports Obs
Monitoring

Sign-up For Email & Text Message Weather Alert Notification Services



Advertise Here

Observation History for HOUSTON/SOUTHWST


Time Wind
(mph)
Vis
(mi)
Weather Precip (in) Temperature (F) Relative
Humidity
Wind
Chill
(F)
Heat
Index
(F)
Pressure
Air Dwpt altimeter
(in)
sea level
(mb)
Rmks
01:55 AM CDT S 5.8 10.00 Cloudy -- 81.1 79.3 94% NA 90.0 29.76 1007.8
01:35 AM CDT 8.1 10.00 Cloudy -- 81.1 79.7 95% NA 90.1 29.76 1007.8
12:55 AM CDT S 5.8 10.00 Cloudy -- 80.8 79.3 95% NA 88.9 29.78 1008.5
12:35 AM CDT S 6.9 10.00 Cloudy -- 81.0 79.7 96% NA 89.6 29.79 1008.8
11:55 PM CDT 5.8 10.00 Cloudy -- 81.3 79.7 95% NA 90.7 29.81 1009.2
11:35 PM CDT 5.8 10.00 Cloudy -- 81.1 79.7 95% NA 90.1 29.81 1009.5
11:15 PM CDT 4.7 10.00 Cloudy -- 80.6 79.2 95% NA 88.3 29.82 1009.8
10:55 PM CDT 4.7 10.00 Mostly Cloudy -- 80.2 78.8 95% NA 87.3 29.81 1009.5
09:55 PM CDT 5.8 10.00 Partly Cloudy -- 80.6 79.0 95% NA 88.3 29.81 1009.2
09:35 PM CDT SE 5.8 10.00 Mostly Cloudy -- 80.8 79.3 95% NA 88.9 29.79 1008.8
09:15 PM CDT SE 4.7 10.00 Partly Cloudy -- 81.0 79.5 95% NA 89.6 29.79 1008.8
08:55 PM CDT SE 8.1 10.00 Partly Cloudy -- 81.9 79.5 93% NA 91.8 29.78 1008.5
08:35 PM CDT SE 8.1 10.00 Partly Cloudy -- 82.4 78.8 89% NA 92.5 29.78 1008.5
08:15 PM CDT SE 5.8 10.00 Clear -- 82.9 77.2 83% NA 92.1 29.77 1008.1
07:55 PM CDT 8.1 10.00 Clear -- 84.2 76.8 79% NA 93.9 29.77 1008.1
06:55 PM CDT SE 8.1 10.00 Clear -- 87.8 74.1 64% NA 96.6 29.76 1007.8
06:15 PM CDT 10.00 Clear -- NULL % NA NA M
05:55 PM CDT 9.2 10.00 Partly Cloudy -- 89.1 76.6 67% NA 101.3 29.77 1008.1
05:35 PM CDT 11.4 10.00 Partly Cloudy -- 89.1 77.0 68% NA 101.8 29.77 1008.1
04:55 PM CDT 6.9 10.00 Partly Cloudy -- 90.0 77.0 66% NA 103.1 29.77 1008.1
04:35 PM CDT 6.9 10.00 Partly Cloudy -- 90.9 77.5 65% NA 105.1 29.77 1008.1
04:15 PM CDT 10.00 NULL -- NULL % NA NA M
03:55 PM CDT SE 8.1 10.00 Partly Cloudy -- 91.4 77.7 64% NA 106.2 29.78 1008.5
03:35 PM CDT S 8.1 10.00 Partly Cloudy -- 91.9 78.4 65% NA 108.0 29.79 1008.8

Regional Weather Observation


HOUSTON/SUGAR LA (KSGR)

Cloudy
82.0 F

HOUSTON/UNIV (KMCJ)

NULL
80.6 F

HOUSTON/SOUTHWST (KAXH)

Cloudy
81.1 F

HOUSTON/HOBBY (KHOU)

Cloudy
82.9 F

HOUSTON (KLVJ)

Cloudy
82.0 F

HOUSTON/ELLINGTO (KEFD)

Partly Cloudy
82.4 F

Advertise Here


Advertise Here